This is the latest recevied weather packets stored in our database for station/object I3LPO-3. If no packets are shown the sender has not sent any weather packets the latest 10 day(s).
| Time | Temp. | Humidity | Pressure | Rain* | Wind** | Luminosity | Snow |
|---|---|---|---|---|---|---|---|
| 1777776964 | 11.11° C | 37% | 1021.6 hPa | - | - | - | - |
| 1777775760 | 11.67° C | 37% | 1021.7 hPa | - | - | - | - |
| 1777774556 | 11.67° C | 37% | 1021.6 hPa | - | - | - | - |
| 1777773353 | 12.22° C | 37% | 1021.7 hPa | - | - | - | - |
| 1777772149 | 12.22° C | 37% | 1021.7 hPa | - | - | - | - |
| 1777770946 | 12.22° C | 37% | 1021.7 hPa | - | - | - | - |
| 1777769742 | 12.78° C | 37% | 1021.8 hPa | - | - | - | - |
| 1777768539 | 12.78° C | 37% | 1022 hPa | - | - | - | - |
| 1777767335 | 13.33° C | 37% | 1022.2 hPa | - | - | - | - |
| 1777766132 | 13.33° C | 37% | 1022.3 hPa | - | - | - | - |
| 1777764928 | 13.89° C | 38% | 1022.4 hPa | - | - | - | - |
| 1777763724 | 13.89° C | 38% | 1022.5 hPa | - | - | - | - |
| 1777762521 | 14.44° C | 38% | 1022.6 hPa | - | - | - | - |
| 1777761317 | 14.44° C | 38% | 1022.6 hPa | - | - | - | - |
| 1777760114 | 15° C | 38% | 1022.6 hPa | - | - | - | - |
| 1777758910 | 15° C | 38% | 1022.6 hPa | - | - | - | - |
| 1777757707 | 15.56° C | 38% | 1022.7 hPa | - | - | - | - |
| 1777756503 | 15.56° C | 38% | 1022.7 hPa | - | - | - | - |
| 1777755299 | 16.11° C | 38% | 1022.7 hPa | - | - | - | - |
| 1777754096 | 16.67° C | 38% | 1022.8 hPa | - | - | - | - |
| 1777752892 | 16.67° C | 38% | 1022.7 hPa | - | - | - | - |
| 1777751689 | 17.22° C | 38% | 1022.7 hPa | - | - | - | - |
| 1777750485 | 17.78° C | 38% | 1022.6 hPa | - | - | - | - |
| 1777749281 | 17.78° C | 38% | 1022.5 hPa | - | - | - | - |
| 1777748078 | 18.33° C | 38% | 1022.1 hPa | - | - | - | - |
* Rain since midnight (hover to see other rain measurements)
** Current wind speed in m/s (hover to see current wind gust speed)